| time (UTC) | temp C | wind direction | speed KPH | gust KPH | rain 1hr cm | rain 24hr cm | rain mn cm | humidity % | barometer mb |
| 20260510071546 | 20 | 160 | 11.3 | 14.5 | 0.00 | 0.00 | 0.00 | 78 | 1010.4 |
| 20260510070045 | 20 | 181 | 6.4 | 9.7 | 0.00 | 0.00 | 0.00 | 79 | 1010.3 |
| 20260510064540 | 20 | 167 | 6.4 | 8.0 | 0.00 | 0.00 | 0.00 | 78 | 1010.3 |
| 20260510063046 | 21 | 180 | 4.8 | 11.3 | 0.00 | 0.00 | 0.00 | 78 | 1010.6 |
| 20260510061547 | 21 | 184 | 11.3 | 12.9 | 0.00 | 0.00 | 0.00 | 77 | 1010.6 |
| 20260510060045 | 21 | 188 | 8.0 | 9.7 | 0.00 | 0.00 | 0.00 | 77 | 1010.7 |
| 20260510054544 | 21 | 185 | 9.7 | 12.9 | 0.00 | 0.00 | 0.00 | 77 | 1010.7 |
| 20260510053041 | 21 | 187 | 11.3 | 14.5 | 0.00 | 0.00 | 0.00 | 77 | 1010.7 |
| 20260510051557 | 21 | 211 | 8.0 | 9.7 | 0.00 | 0.00 | 0.00 | 77 | 1010.9 |
| 20260510050047 | 21 | 189 | 11.3 | 14.5 | 0.00 | 0.00 | 0.00 | 75 | 1010.8 |
| 20260510044547 | 22 | 183 | 14.5 | 19.3 | 0.00 | 0.00 | 0.00 | 71 | 1010.9 |
| 20260510043045 | 23 | 163 | 14.5 | 17.7 | 0.00 | 0.00 | 0.00 | 70 | 1010.9 |
| 20260510041542 | 23 | 162 | 12.9 | 17.7 | 0.00 | 0.00 | 0.00 | 71 | 1011.0 |
| 20260510040040 | 23 | 165 | 12.9 | 17.7 | 0.00 | 0.00 | 0.00 | 72 | 1010.9 |
| 20260510034547 | 23 | 152 | 11.3 | 16.1 | 0.00 | 0.00 | 0.00 | 71 | 1010.9 |
| 20260510030229 | 25 | 144 | 14.5 | 19.3 | 0.00 | 0.00 | 0.00 | 65 | 1010.5 |
| 20260510024941 | 25 | 153 | 12.9 | 17.7 | 0.00 | 0.00 | 0.00 | 65 | 1010.3 |
| 20260510023044 | 25 | 161 | 12.9 | 16.1 | 0.00 | 0.00 | 0.00 | 63 | 1010.2 |
| 20260510021653 | 26 | 155 | 12.9 | 16.1 | 0.00 | 0.00 | 0.00 | 61 | 1010.0 |
| 20260510020044 | 27 | 153 | 12.9 | 17.7 | 0.00 | 0.00 | 0.00 | 59 | 1009.7 |
| 20260510014540 | 27 | 150 | 9.7 | 16.1 | 0.00 | 0.00 | 0.00 | 56 | 1009.5 |
| 20260510013049 | 28 | 142 | 8.0 | 14.5 | 0.00 | 0.00 | 0.00 | 54 | 1009.3 |
| 20260510011547 | 29 | 153 | 8.0 | 14.5 | 0.00 | 0.00 | 0.00 | 52 | 1009.2 |
| 20260510010044 | 30 | 162 | 11.3 | 17.7 | 0.00 | 0.00 | 0.00 | 49 | 1009.2 |
| 20260510004548 | 30 | 160 | 14.5 | 24.1 | 0.00 | 0.00 | 0.00 | 48 | 1009.2 |
| 20260510003051 | 30 | 174 | 12.9 | 24.1 | 0.00 | 0.00 | 0.00 | 44 | 1009.1 |
| 20260510001546 | 30 | 182 | 9.7 | 19.3 | 0.00 | 0.00 | 0.00 | 46 | 1009.0 |
| 20260510000046 | 30 | 193 | 12.9 | 20.9 | 0.00 | 0.00 | 0.00 | 43 | 1009.0 |
| 20260509234550 | 31 | 193 | 9.7 | 16.1 | 0.00 | 0.00 | 0.00 | 44 | 1009.0 |
| 20260509233043 | 31 | 194 | 8.0 | 14.5 | 0.00 | 0.00 | 0.00 | 43 | 1009.1 |
| 20260509231552 | 31 | 159 | 9.7 | 22.5 | 0.00 | 0.00 | 0.00 | 45 | 1009.3 |
| 20260509230050 | 31 | 210 | 14.5 | 24.1 | 0.00 | 0.00 | 0.00 | 44 | 1009.3 |
| 20260509224544 | 31 | 180 | 9.7 | 22.5 | 0.00 | 0.00 | 0.00 | 46 | 1009.3 |
| 20260509223044 | 30 | 182 | 12.9 | 24.1 | 0.00 | 0.00 | 0.00 | 48 | 1009.2 |
| 20260509221542 | 30 | 192 | 8.0 | 20.9 | 0.00 | 0.00 | 0.00 | 47 | 1009.4 |
| 20260509220042 | 30 | 178 | 14.5 | 25.7 | 0.00 | 0.00 | 0.00 | 45 | 1009.5 |
| 20260509214543 | 30 | 212 | 12.9 | 25.7 | 0.00 | 0.00 | 0.00 | 50 | 1009.6 |
| 20260509213055 | 30 | 169 | 12.9 | 24.1 | 0.00 | 0.00 | 0.00 | 50 | 1009.8 |
| 20260509211543 | 30 | 196 | 12.9 | 20.9 | 0.00 | 0.00 | 0.00 | 52 | 1010.0 |
| 20260509210100 | 30 | 204 | 9.7 | 24.1 | 0.00 | 0.00 | 0.00 | 50 | 1010.1 |
| 20260509204545 | 29 | 175 | 8.0 | 24.1 | 0.00 | 0.00 | 0.00 | 53 | 1010.4 |
| 20260509203043 | 29 | 238 | 16.1 | 25.7 | 0.00 | 0.00 | 0.00 | 54 | 1010.6 |
| 20260509201544 | 29 | 169 | 12.9 | 20.9 | 0.00 | 0.00 | 0.00 | 58 | 1010.9 |
| 20260509200044 | 28 | 217 | 16.1 | 22.5 | 0.00 | 0.00 | 0.00 | 57 | 1011.0 |
| 20260509194545 | 28 | 229 | 11.3 | 24.1 | 0.00 | 0.00 | 0.00 | 59 | 1011.2 |
| 20260509193045 | 28 | 200 | 12.9 | 22.5 | 0.00 | 0.00 | 0.00 | 59 | 1011.2 |
| 20260509191544 | 28 | 192 | 16.1 | 27.4 | 0.00 | 0.00 | 0.00 | 61 | 1011.3 |
| 20260509190044 | 27 | 173 | 14.5 | 25.7 | 0.00 | 0.00 | 0.00 | 61 | 1011.6 |
| 20260509184551 | 27 | 205 | 16.1 | 25.7 | 0.00 | 0.00 | 0.00 | 63 | 1011.9 |
| 20260509183046 | 27 | 205 | 12.9 | 19.3 | 0.00 | 0.00 | 0.00 | 66 | 1012.1 |
| 20260509181556 | 26 | 222 | 8.0 | 25.7 | 0.00 | 0.00 | 0.00 | 66 | 1012.3 |
| 20260509180048 | 26 | 232 | 14.5 | 24.1 | 0.00 | 0.00 | 0.00 | 66 | 1012.8 |
| 20260509174543 | 25 | 214 | 8.0 | 17.7 | 0.00 | 0.00 | 0.00 | 72 | 1012.8 |
| 20260509173045 | 25 | 219 | 9.7 | 22.5 | 0.00 | 0.00 | 0.00 | 74 | 1012.9 |
| 20260509171550 | 25 | 242 | 11.3 | 17.7 | 0.00 | 0.00 | 0.00 | 75 | 1013.0 |
| 20260509170051 | 24 | 207 | 8.0 | 16.1 | 0.00 | 0.00 | 0.00 | 76 | 1013.1 |
| 20260509164544 | 23 | 200 | 9.7 | 14.5 | 0.00 | 0.00 | 0.00 | 80 | 1013.1 |
| 20260509163043 | 22 | 209 | 11.3 | 16.1 | 0.00 | 0.00 | 0.00 | 84 | 1013.1 |
| 20260509161541 | 21 | 205 | 11.3 | 17.7 | 0.00 | 0.00 | 0.00 | 87 | 1013.2 |
| 20260509160044 | 21 | 217 | 11.3 | 19.3 | 0.00 | 0.00 | 0.00 | 90 | 1013.3 |
| 20260509154546 | 20 | 216 | 12.9 | 19.3 | 0.00 | 0.00 | 0.00 | 91 | 1013.3 |
| 20260509153058 | 19 | 201 | 12.9 | 22.5 | 0.00 | 0.00 | 0.00 | 92 | 1013.2 |
| 20260509151554 | 19 | 223 | 14.5 | 17.7 | 0.00 | 0.00 | 0.00 | 91 | 1013.6 |
| 20260509150046 | 18 | 236 | 4.8 | 11.3 | 0.00 | 0.00 | 0.00 | 92 | 1013.9 |
| 20260509144547 | 18 | 232 | 6.4 | 9.7 | 0.00 | 0.00 | 0.00 | 93 | 1013.7 |
| 20260509143051 | 18 | 302 | 0.0 | 4.8 | 0.00 | 0.00 | 0.00 | 93 | 1013.8 |
| 20260509141544 | 18 | 0 | 0.0 | 1.6 | 0.00 | 0.00 | 0.00 | 93 | 1013.7 |
| 20260509140048 | 17 | 0 | 0.0 | 6.4 | 0.00 | 0.00 | 0.00 | 94 | 1013.6 |
| 20260509134541 | 17 | 333 | 4.8 | 12.9 | 0.00 | 0.00 | 0.00 | 94 | 1013.5 |
| 20260509133050 | 17 | 9 | 8.0 | 11.3 | 0.00 | 0.00 | 0.00 | 94 | 1013.3 |
| 20260509131548 | 16 | 360 | 4.8 | 11.3 | 0.00 | 0.00 | 0.00 | 94 | 1013.1 |
| 20260509130045 | 16 | 5 | 4.8 | 14.5 | 0.00 | 0.00 | 0.00 | 95 | 1013.1 |
| 20260509124542 | 15 | 11 | 6.4 | 16.1 | 0.00 | 0.00 | 0.00 | 94 | 1013.1 |
| 20260509123053 | 16 | 336 | 8.0 | 12.9 | 0.00 | 0.00 | 0.00 | 94 | 1012.8 |
| 20260509121556 | 16 | 5 | 6.4 | 14.5 | 0.00 | 0.00 | 0.00 | 94 | 1012.5 |
| 20260509120454 | 16 | 175 | 9.7 | 14.5 | 0.00 | 0.00 | 0.00 | 94 | 1012.2 |
| 20260509113043 | 15 | 205 | 9.7 | 14.5 | 0.00 | 0.00 | 0.00 | 93 | 1012.1 |
| 20260509111546 | 15 | 206 | 9.7 | 11.3 | 0.00 | 0.00 | 0.00 | 93 | 1012.1 |
| 20260509110044 | 15 | 219 | 9.7 | 12.9 | 0.00 | 0.00 | 0.00 | 93 | 1012.1 |
| 20260509103043 | 16 | 154 | 4.8 | 11.3 | 0.00 | 0.00 | 0.00 | 92 | 1012.4 |
| 20260509101552 | 16 | 144 | 4.8 | 14.5 | 0.00 | 0.00 | 0.00 | 92 | 1012.2 |
| 20260509100057 | 16 | 40 | 6.4 | 11.3 | 0.00 | 0.00 | 0.00 | 92 | 1013.0 |
| 20260509094550 | 16 | 48 | 6.4 | 12.9 | 0.00 | 0.00 | 0.00 | 92 | 1012.9 |
| 20260509093043 | 16 | 115 | 9.7 | 14.5 | 0.00 | 0.00 | 0.00 | 92 | 1012.2 |
| 20260509091557 | 16 | 153 | 3.2 | 9.7 | 0.00 | 0.00 | 0.00 | 92 | 1012.5 |
| 20260509090047 | 16 | 0 | 3.2 | 12.9 | 0.00 | 0.00 | 0.00 | 92 | 1012.4 |
| 20260509084546 | 16 | 168 | 6.4 | 9.7 | 0.00 | 0.00 | 0.00 | 91 | 1012.1 |
| 20260509083051 | 16 | 322 | 3.2 | 8.0 | 0.00 | 0.00 | 0.00 | 91 | 1012.0 |
| 20260509081546 | 16 | 304 | 1.6 | 6.4 | 0.00 | 0.00 | 0.00 | 90 | 1012.3 |
| 20260509080051 | 16 | 304 | 3.2 | 8.0 | 0.00 | 0.00 | 0.00 | 90 | 1012.7 |
| 20260509074551 | 17 | 280 | 6.4 | 16.1 | 0.00 | 0.00 | 0.00 | 89 | 1012.5 |
| 20260509073111 | 18 | 275 | 8.0 | 16.1 | 0.00 | 0.00 | 0.00 | 88 | 1012.3 |